FW3192 Weather Reports


Display with metric or nautical units.
time (UTC)temp
F
wind
direction
speed
MPH
gust
MPH
rain 1hr
in
rain 24hr
in
rain mn
in
humidity
%
barometer
mb
20260507023004 58 212 9.0 14.0 0.00 0.00 0.00 62 1029.8
20260507021501 58 194 12.0 16.0 0.00 0.00 0.00 60 1029.9
20260507020100 59 196 13.0 17.0 0.00 0.00 0.00 58 1030.0
20260507014614 59 188 12.0 18.0 0.00 0.00 0.00 55 1030.0
20260507013043 59 185 11.0 18.0 0.00 0.00 0.00 51 1030.0
20260507011540 59 200 16.0 20.0 0.00 0.00 0.00 54 1029.8
20260507010036 59 150 13.0 17.0 0.00 0.00 0.00 55 1029.9
20260507004537 58 194 11.0 17.0 0.00 0.00 0.00 59 1029.7
20260507003028 58 165 14.0 17.0 0.00 0.00 0.00 59 1029.7
20260507001526 58 159 14.0 19.0 0.00 0.00 0.00 63 1029.8
20260507000024 57 146 13.0 18.0 0.00 0.00 0.00 63 1029.7
20260506234520 57 135 8.0 14.0 0.00 0.00 0.00 66 1029.6
20260506233017 56 149 7.0 13.0 0.00 0.00 0.00 69 1029.5
20260506231558 55 154 8.0 12.0 0.00 0.00 0.00 71 1029.4
20260506230051 54 155 5.0 7.0 0.00 0.00 0.00 74 1029.2
20260506224533 53 135 4.0 6.0 0.00 0.00 0.00 76 1029.1
20260506223028 52 131 3.0 6.0 0.00 0.00 0.00 77 1029.0
20260506221525 51 137 3.0 5.0 0.00 0.00 0.00 78 1028.7
20260506220033 51 149 3.0 5.0 0.00 0.00 0.00 78 1028.5
20260506214521 50 141 3.0 5.0 0.00 0.00 0.00 78 1028.3
20260506213023 50 145 4.0 6.0 0.00 0.00 0.00 79 1028.1
20260506211514 50 126 3.0 6.0 0.00 0.00 0.00 78 1028.0
20260506210014 50 129 3.0 5.0 0.00 0.00 0.00 78 1027.8
20260506204553 51 144 4.0 7.0 0.00 0.00 0.00 77 1027.6
20260506203049 52 157 6.0 11.0 0.00 0.00 0.00 76 1027.5
20260506201529 52 147 10.0 14.0 0.00 0.00 0.00 74 1027.4
20260506200025 53 140 9.0 13.0 0.00 0.00 0.00 73 1027.3
20260506194523 53 145 4.0 9.0 0.00 0.00 0.00 74 1027.1
20260506193022 53 168 4.0 15.0 0.00 0.00 0.00 75 1027.0
20260506191522 53 197 7.0 13.0 0.00 0.00 0.00 73 1026.9
20260506190024 53 157 4.0 6.0 0.00 0.00 0.00 72 1026.7
20260506184519 53 151 4.0 7.0 0.00 0.00 0.00 73 1026.4
20260506183015 53 143 3.0 5.0 0.00 0.00 0.00 73 1026.4
20260506181502 53 149 4.0 7.0 0.00 0.00 0.00 71 1026.2
20260506180116 54 149 7.0 11.0 0.00 0.00 0.00 69 1026.2
20260506180001 54 149 6.0 11.0 0.00 0.00 0.00 69 1026.2
20260506174601 55 138 7.0 17.0 0.00 0.00 0.00 67 1026.3
20260506173135 54 189 6.0 11.0 0.00 0.00 0.00 70 1026.3
20260506171558 54 153 4.0 7.0 0.00 0.00 0.00 71 1026.3
20260506170059 54 157 6.0 10.0 0.00 0.00 0.00 70 1026.4
20260506164557 54 159 6.0 9.0 0.00 0.00 0.00 70 1026.4
20260506163103 54 162 8.0 13.0 0.00 0.00 0.00 69 1026.4
20260506161539 55 154 9.0 18.0 0.00 0.00 0.00 66 1026.4
20260506160037 55 155 9.0 19.0 0.00 0.00 0.00 64 1026.4
20260506154534 56 204 11.0 21.0 0.00 0.00 0.00 65 1026.2
20260506153033 55 168 9.0 14.0 0.00 0.00 0.00 63 1026.2
20260506151532 55 171 10.0 14.0 0.00 0.00 0.00 62 1026.3
20260506150031 55 161 8.0 13.0 0.00 0.00 0.00 64 1026.1
20260506144529 55 157 10.0 14.0 0.00 0.00 0.00 63 1026.1
20260506143030 55 153 9.0 18.0 0.00 0.00 0.00 64 1026.0
20260506141510 56 170 9.0 19.0 0.00 0.00 0.00 67 1026.0
20260506140009 56 151 11.0 19.0 0.00 0.00 0.00 67 1026.1
20260506134506 56 156 15.0 20.0 0.00 0.00 0.00 64 1025.7
20260506133005 56 171 13.0 19.0 0.00 0.00 0.00 68 1025.6
20260506131506 56 175 11.0 18.0 0.00 0.00 0.00 70 1025.5
20260506130002 57 178 12.0 18.0 0.00 0.00 0.00 70 1025.4
20260506124558 57 187 13.0 19.0 0.00 0.00 0.00 71 1025.2
20260506123058 57 147 10.0 18.0 0.00 0.00 0.00 74 1025.1
20260506121541 57 157 10.0 17.0 0.00 0.00 0.00 76 1025.0
20260506120039 57 165 10.0 17.0 0.00 0.00 0.00 77 1024.8
20260506114537 57 160 10.0 16.0 0.00 0.00 0.00 79 1024.8
20260506113036 57 157 10.0 18.0 0.00 0.00 0.00 80 1024.7
20260506111533 57 192 10.0 17.0 0.00 0.00 0.00 80 1024.6
20260506110034 57 168 15.0 22.0 0.00 0.00 0.00 81 1024.4
20260506104530 57 187 15.0 22.0 0.00 0.00 0.00 81 1024.2
20260506103029 57 161 14.0 19.0 0.00 0.00 0.00 83 1024.0
20260506101521 57 161 15.0 22.0 0.00 0.00 0.00 83 1023.8
20260506100013 57 170 17.0 23.0 0.00 0.00 0.00 84 1023.6
20260506094510 57 209 15.0 22.0 0.00 0.00 0.00 90 1023.3
20260506093009 57 181 18.0 26.0 0.00 0.00 0.00 90 1023.2
20260506091508 58 176 17.0 25.0 0.00 0.00 0.00 89 1022.9
20260506090014 60 212 19.0 27.0 0.00 0.00 0.00 85 1022.4
20260506084508 60 203 19.0 25.0 0.00 0.00 0.00 83 1022.2
20260506083002 60 212 14.0 17.0 0.00 0.00 0.00 86 1022.0
20260506081549 61 208 19.0 25.0 0.00 0.00 0.00 81 1021.7
20260506080104 62 234 10.0 18.0 0.00 0.00 0.00 77 1021.6
20260506073102 62 246 12.0 19.0 0.00 0.00 0.00 75 1021.4
20260506071549 63 228 11.0 16.0 0.00 0.00 0.00 73 1021.3
20260506061533 63 183 13.0 18.0 0.00 0.00 0.00 73 1021.0
20260506044535 59 247 10.0 17.0 0.00 0.00 0.00 93 1020.8
20260506043025 59 214 10.0 16.0 0.00 0.00 0.00 94 1020.9
20260506041503 59 213 16.0 22.0 0.00 0.00 0.00 93 1021.0
20260506040003 59 235 5.0 14.0 0.00 0.00 0.00 93 1021.0
20260506034604 60 60 8.0 16.0 0.00 0.00 0.00 93 1021.1
20260506033119 60 258 10.0 19.0 0.00 0.00 0.00 93 1021.1
20260506031556 60 253 14.0 20.0 0.00 0.00 0.00 91 1021.3
20260506030100 62 258 11.0 19.0 0.00 0.00 0.00 81 1021.6
20260506024607 64 275 6.0 10.0 0.00 0.00 0.00 77 1021.5